Home > Weather > Bordeaux > Past weeks

Flag for France Past Weather in Bordeaux, Aquitaine, France — Yesterday and Last 2 Weeks

Now
61 °F

Clear.


Feels Like: 61 °F
Forecast: 64 / 84 °F
Wind: No wind

Location: Bordeaux / Merignac

Current Time: Jul 25, 2016 at 8:15:35 AM

Latest Report: Jul 25, 2016 at 7:30 AM


Visibility: 10 mi

Pressure: 30.18 "Hg

Humidity: 94%

Dew Point: 59 °F

Location of BordeauxLocation

Past Weather in Bordeaux — Graph

°F

Bordeaux Temperature Yesterday

Maximum temperature yesterday: 81 °F (at 3:00 PM)
Minimum temperature yesterday: 59 °F (at 6:30 AM)
Average temperature yesterday: 70 °F

High & Low Weather Summary for the Past Weeks

 TemperatureHumidityPressure
High100 °F (Jul 19, 4:00 PM)100% (Jul 20, 6:30 AM)30.36 "Hg (Jul 20, 6:30 AM)
Low52 °F (Jul 14, 4:30 AM)17% (Jul 19, 5:00 PM)29.92 "Hg (Jul 19, 3:30 PM)
Average71 °F63%30.12 "Hg
* Reported Jul 10 7:00 AM — Jul 25 7:00 AM, Bordeaux, Weather by CustomWeather, © 2016

Note: Actual official high and low records may vary slightly from our data, if they occured in-between our weather recording intervals... More about our weather records

Advertising

Bordeaux Weather History for the Previous 24 Hours

Scroll right to see more
 ConditionsComfort  
Time TempWeatherWind HumidityBarometerVisibility
7:00 AM
Mon, Jul 25
59 °FPassing clouds.1 mph94%30.18 "HgN/A
6:30 AM59 °FClear.3 mph88%30.18 "Hg10 mi
6:00 AM59 °FClear.3 mph88%30.18 "Hg10 mi
5:30 AM59 °FClear.5 mph94%30.18 "Hg10 mi
5:00 AM59 °FClear.3 mph94%30.18 "Hg10 mi
4:30 AM61 °FClear.3 mph88%30.18 "HgN/A
4:00 AM61 °FClear.1 mph88%30.18 "HgN/A
3:30 AM61 °FClear.No wind88%30.18 "Hg10 mi
3:00 AM63 °FClear.2 mph83%30.18 "Hg10 mi
2:30 AM63 °FClear.3 mph83%30.18 "Hg10 mi
2:00 AM63 °FClear.2 mph83%30.18 "Hg10 mi
1:30 AM64 °FClear.2 mph83%30.18 "Hg10 mi
1:00 AM64 °FClear.2 mph83%30.21 "Hg10 mi
12:30 AM64 °FClear.3 mph78%30.21 "Hg10 mi
12:00 AM64 °FClear.3 mph83%30.21 "Hg10 mi
11:30 PM
Sun, Jul 24
66 °FPassing clouds.5 mph78%30.21 "HgN/A
11:00 PM66 °FClear.3 mph78%30.18 "Hg10 mi
10:30 PM68 °FSunny.5 mph73%30.18 "Hg10 mi
10:00 PM68 °FPassing clouds.6 mph73%30.18 "HgN/A
9:30 PM70 °FSunny.10 mph64%30.18 "Hg10 mi
9:00 PM72 °FSunny.10 mph61%30.15 "Hg10 mi
8:30 PM75 °FSunny.9 mph54%30.15 "Hg10 mi
8:00 PM77 °FSunny.10 mph54%30.15 "Hg10 mi
7:30 PM77 °FSunny.12 mph51%30.15 "Hg10 mi
7:00 PM77 °FPassing clouds.12 mph51%30.15 "HgN/A
6:30 PM79 °FPassing clouds.13 mph48%30.15 "HgN/A
6:00 PM81 °FPassing clouds.12 mph48%30.15 "HgN/A
5:30 PM79 °FBroken clouds.12 mph51%30.15 "HgN/A
5:00 PM81 °FScattered clouds.9 mph48%30.15 "HgN/A
4:30 PM81 °FScattered clouds.8 mph48%30.15 "HgN/A
4:00 PM79 °FBroken clouds.8 mph51%30.15 "HgN/A
3:30 PM79 °FScattered clouds.9 mph51%30.18 "HgN/A
3:00 PM81 °FScattered clouds.8 mph48%30.18 "HgN/A
2:30 PM79 °FPartly sunny.6 mph51%30.18 "HgN/A
2:00 PM77 °FPartly sunny.7 mph54%30.18 "HgN/A
1:30 PM79 °FPartly sunny.7 mph51%30.18 "HgN/A
1:00 PM79 °FPartly sunny.7 mph51%30.21 "HgN/A
12:30 PM77 °FPartly sunny.7 mph54%30.21 "HgN/A
12:00 PM75 °FPassing clouds.7 mph57%30.21 "HgN/A
11:30 AM73 °FPassing clouds.7 mph61%30.21 "HgN/A
11:00 AM73 °FPassing clouds.9 mph61%30.21 "HgN/A
10:30 AM72 °FPassing clouds.8 mph65%30.21 "HgN/A
10:00 AM70 °FPassing clouds.7 mph69%30.21 "HgN/A
9:30 AM68 °FPassing clouds.7 mph73%30.21 "HgN/A
9:00 AM66 °FPassing clouds.7 mph78%30.21 "HgN/A
8:30 AM64 °FPassing clouds.6 mph83%30.21 "HgN/A
8:00 AM63 °FSunny.3 mph88%30.18 "Hg10 mi
Weather by CustomWeather, © 2016

See weather overviewHow to use our weather pages